| time (UTC) | temp F | wind direction | speed MPH | gust MPH | rain 1hr in | rain 24hr in | rain mn in | humidity % | barometer mb |
| 20260505101804 | 57 | 16 | 6.0 | 12.0 | 0.00 | 0.01 | 0.01 | 69 | 1011.4 |
| 20260505100304 | 57 | 57 | 5.0 | 13.0 | 0.00 | 0.01 | 0.01 | 73 | 1011.4 |
| 20260505095305 | 57 | 99 | 3.0 | 10.0 | 0.00 | 0.01 | 0.01 | 74 | 1011.5 |
| 20260505094804 | 56 | 37 | 4.0 | 12.0 | 0.00 | 0.01 | 0.01 | 75 | 1011.5 |
| 20260505094303 | 56 | 56 | 7.0 | 14.0 | 0.00 | 0.01 | 0.01 | 76 | 1011.6 |
| 20260505093804 | 56 | 5 | 5.0 | 10.0 | 0.00 | 0.01 | 0.01 | 78 | 1011.6 |
| 20260505092803 | 55 | 20 | 7.0 | 13.0 | 0.00 | 0.01 | 0.01 | 79 | 1011.6 |
| 20260505091804 | 55 | 18 | 6.0 | 12.0 | 0.00 | 0.01 | 0.01 | 81 | 1011.6 |
| 20260505091304 | 54 | 14 | 3.0 | 12.0 | 0.00 | 0.01 | 0.01 | 83 | 1011.7 |
| 20260505085804 | 54 | 22 | 6.0 | 12.0 | 0.00 | 0.01 | 0.01 | 83 | 1011.7 |
| 20260505084304 | 53 | 39 | 3.0 | 12.0 | 0.00 | 0.01 | 0.01 | 88 | 1011.8 |
| 20260505083804 | 52 | 357 | 5.0 | 12.0 | 0.00 | 0.01 | 0.01 | 88 | 1011.8 |
| 20260505083304 | 51 | 351 | 6.0 | 12.0 | 0.00 | 0.01 | 0.01 | 88 | 1011.8 |
| 20260505082804 | 51 | 351 | 5.0 | 10.0 | 0.00 | 0.01 | 0.01 | 88 | 1011.8 |
| 20260505081803 | 51 | 350 | 5.0 | 10.0 | 0.00 | 0.01 | 0.01 | 89 | 1011.8 |
| 20260505081304 | 51 | 0 | 5.0 | 12.0 | 0.00 | 0.01 | 0.01 | 89 | 1011.8 |
| 20260505080804 | 51 | 349 | 5.0 | 12.0 | 0.00 | 0.01 | 0.01 | 89 | 1011.8 |
| 20260505080304 | 51 | 3 | 4.0 | 8.0 | 0.00 | 0.01 | 0.01 | 90 | 1011.7 |
| 20260505075804 | 51 | 14 | 5.0 | 10.0 | 0.00 | 0.01 | 0.01 | 90 | 1011.7 |
| 20260505075304 | 51 | 341 | 3.0 | 8.0 | 0.00 | 0.01 | 0.01 | 90 | 1011.8 |
| 20260505074804 | 51 | 3 | 4.0 | 8.0 | 0.00 | 0.01 | 0.01 | 90 | 1011.8 |
| 20260505074304 | 51 | 14 | 5.0 | 12.0 | 0.00 | 0.01 | 0.01 | 90 | 1011.8 |
| 20260505071304 | 51 | 15 | 5.0 | 13.0 | 0.00 | 0.01 | 0.01 | 90 | 1011.6 |
| 20260505070804 | 51 | 22 | 6.0 | 12.0 | 0.00 | 0.01 | 0.01 | 90 | 1011.6 |
| 20260505070304 | 51 | 19 | 3.0 | 9.0 | 0.00 | 0.01 | 0.01 | 91 | 1011.8 |
| 20260505065304 | 50 | 31 | 5.0 | 12.0 | 0.00 | 0.01 | 0.01 | 91 | 1011.7 |
| 20260505062804 | 50 | 22 | 6.0 | 12.0 | 0.01 | 0.01 | 0.01 | 93 | 1011.9 |
| 20260505061305 | 49 | 14 | 5.0 | 12.0 | 0.01 | 0.01 | 0.01 | 93 | 1011.8 |
| 20260505060304 | 49 | 26 | 5.0 | 12.0 | 0.01 | 0.01 | 0.01 | 94 | 1011.7 |
| 20260505055803 | 49 | 15 | 6.0 | 12.0 | 0.01 | 0.01 | 0.01 | 94 | 1011.7 |
| 20260505055304 | 49 | 38 | 5.0 | 12.0 | 0.01 | 0.01 | 0.01 | 94 | 1011.7 |
| 20260505054804 | 49 | 9 | 7.0 | 12.0 | 0.00 | 0.00 | 0.00 | 94 | 1011.7 |
| 20260505053304 | 49 | 49 | 4.0 | 9.0 | 0.00 | 0.00 | 0.00 | 94 | 1011.8 |
| 20260505052804 | 49 | 16 | 5.0 | 9.0 | 0.00 | 0.00 | 0.00 | 94 | 1011.8 |
| 20260505041304 | 49 | 42 | 2.0 | 5.0 | 0.00 | 0.00 | 0.00 | 95 | 1012.4 |
| 20260505035804 | 49 | 52 | 1.0 | 3.0 | 0.00 | 0.00 | 0.00 | 95 | 1012.4 |
| 20260505034804 | 49 | 43 | 1.0 | 3.0 | 0.00 | 0.00 | 0.00 | 95 | 1012.4 |
| 20260505034304 | 49 | 51 | 2.0 | 6.0 | 0.00 | 0.00 | 0.00 | 95 | 1012.4 |
| 20260505033804 | 49 | 35 | 2.0 | 5.0 | 0.00 | 0.00 | 0.00 | 95 | 1012.4 |
| 20260505033304 | 49 | 46 | 2.0 | 5.0 | 0.00 | 0.00 | 0.00 | 95 | 1012.6 |
| 20260505030304 | 49 | 43 | 2.0 | 8.0 | 0.00 | 0.00 | 0.00 | 95 | 1012.5 |
| 20260505023804 | 50 | 35 | 3.0 | 6.0 | 0.00 | 0.00 | 0.00 | 95 | 1012.6 |
| 20260505023304 | 50 | 43 | 2.0 | 6.0 | 0.00 | 0.00 | 0.00 | 95 | 1012.7 |
| 20260505022304 | 50 | 58 | 2.0 | 3.0 | 0.00 | 0.00 | 0.00 | 95 | 1012.7 |
| 20260505021804 | 50 | 45 | 2.0 | 5.0 | 0.00 | 0.00 | 0.00 | 95 | 1012.7 |
| 20260505021304 | 50 | 65 | 2.0 | 5.0 | 0.00 | 0.00 | 0.00 | 95 | 1012.6 |
| 20260505020304 | 50 | 56 | 2.0 | 5.0 | 0.00 | 0.00 | 0.00 | 95 | 1012.7 |
| 20260505015804 | 50 | 56 | 3.0 | 7.0 | 0.00 | 0.00 | 0.00 | 95 | 1012.7 |
| 20260505014304 | 50 | 67 | 2.0 | 9.0 | 0.00 | 0.00 | 0.00 | 95 | 1012.9 |
| 20260505013804 | 50 | 30 | 2.0 | 6.0 | 0.00 | 0.00 | 0.00 | 95 | 1012.9 |
| 20260505013304 | 50 | 53 | 3.0 | 8.0 | 0.00 | 0.00 | 0.00 | 95 | 1012.7 |
| 20260505010304 | 50 | 58 | 2.0 | 5.0 | 0.00 | 0.00 | 0.00 | 95 | 1012.9 |
| 20260505005803 | 50 | 51 | 3.0 | 6.0 | 0.00 | 0.00 | 0.00 | 95 | 1012.9 |
| 20260505004804 | 50 | 57 | 3.0 | 6.0 | 0.00 | 0.00 | 0.00 | 95 | 1013.2 |
| 20260505002304 | 51 | 51 | 2.0 | 3.0 | 0.00 | 0.00 | 0.00 | 95 | 1013.6 |
| 20260505001804 | 51 | 73 | 1.0 | 3.0 | 0.00 | 0.00 | 0.00 | 95 | 1013.6 |
| 20260505001303 | 51 | 44 | 1.0 | 3.0 | 0.00 | 0.00 | 0.00 | 95 | 1013.4 |
| 20260505000804 | 51 | 76 | 2.0 | 9.0 | 0.00 | 0.00 | 0.00 | 95 | 1013.4 |
| 20260504235804 | 51 | 80 | 3.0 | 9.0 | 0.00 | 0.00 | 0.00 | 95 | 1013.5 |
| 20260504234804 | 51 | 61 | 2.0 | 7.0 | 0.00 | 0.00 | 0.00 | 94 | 1013.5 |
| 20260504233304 | 51 | 60 | 3.0 | 10.0 | 0.00 | 0.00 | 0.00 | 94 | 1013.4 |
| 20260504230814 | 51 | 60 | 5.0 | 12.0 | 0.00 | 0.00 | 0.00 | 94 | 1013.3 |
| 20260504224303 | 52 | 68 | 1.0 | 3.0 | 0.00 | 0.00 | 0.00 | 94 | 1013.6 |
| 20260504221804 | 52 | 74 | 1.0 | 6.0 | 0.00 | 0.00 | 0.00 | 93 | 1013.7 |
| 20260504221304 | 52 | 54 | 2.0 | 5.0 | 0.00 | 0.00 | 0.00 | 93 | 1013.7 |
| 20260504220804 | 52 | 70 | 1.0 | 5.0 | 0.00 | 0.00 | 0.00 | 93 | 1013.7 |
| 20260504220303 | 52 | 44 | 1.0 | 5.0 | 0.00 | 0.00 | 0.00 | 93 | 1013.7 |
| 20260504215804 | 52 | 45 | 2.0 | 6.0 | 0.00 | 0.00 | 0.00 | 93 | 1013.7 |
| 20260504215305 | 52 | 41 | 3.0 | 6.0 | 0.00 | 0.00 | 0.00 | 93 | 1013.8 |
| 20260504213804 | 53 | 93 | 2.0 | 3.0 | 0.00 | 0.00 | 0.00 | 92 | 1013.6 |
| 20260504213304 | 53 | 55 | 2.0 | 3.0 | 0.00 | 0.00 | 0.00 | 92 | 1013.7 |
| 20260504211804 | 53 | 24 | 1.0 | 5.0 | 0.00 | 0.00 | 0.00 | 92 | 1013.7 |
| 20260504211304 | 53 | 54 | 2.0 | 5.0 | 0.00 | 0.00 | 0.00 | 92 | 1013.8 |
| 20260504210803 | 53 | 67 | 1.0 | 3.0 | 0.00 | 0.00 | 0.00 | 92 | 1013.8 |
| 20260504205804 | 53 | 50 | 1.0 | 3.0 | 0.00 | 0.00 | 0.00 | 92 | 1013.8 |
| 20260504205304 | 53 | 57 | 3.0 | 6.0 | 0.00 | 0.00 | 0.00 | 92 | 1013.8 |
| 20260504204304 | 53 | 32 | 2.0 | 5.0 | 0.00 | 0.00 | 0.00 | 92 | 1013.8 |
| 20260504203804 | 53 | 55 | 2.0 | 5.0 | 0.00 | 0.00 | 0.00 | 92 | 1013.8 |
| 20260504202305 | 53 | 50 | 2.0 | 9.0 | 0.00 | 0.00 | 0.00 | 91 | 1013.7 |
| 20260504201304 | 53 | 50 | 2.0 | 5.0 | 0.00 | 0.00 | 0.00 | 91 | 1013.6 |
| 20260504200804 | 53 | 53 | 2.0 | 5.0 | 0.00 | 0.00 | 0.00 | 91 | 1013.6 |
| 20260504200304 | 54 | 55 | 2.0 | 5.0 | 0.00 | 0.00 | 0.00 | 90 | 1013.5 |
| 20260504195803 | 54 | 38 | 2.0 | 5.0 | 0.00 | 0.00 | 0.00 | 90 | 1013.5 |
| 20260504195304 | 54 | 16 | 1.0 | 3.0 | 0.00 | 0.00 | 0.00 | 90 | 1013.5 |
| 20260504194804 | 54 | 59 | 2.0 | 7.0 | 0.00 | 0.00 | 0.00 | 90 | 1013.5 |
| 20260504194303 | 54 | 41 | 3.0 | 8.0 | 0.00 | 0.00 | 0.00 | 89 | 1013.3 |
| 20260504192304 | 55 | 53 | 1.0 | 3.0 | 0.00 | 0.00 | 0.00 | 88 | 1012.9 |
| 20260504191803 | 55 | 75 | 2.0 | 3.0 | 0.00 | 0.00 | 0.00 | 88 | 1012.9 |
| 20260504191304 | 55 | 51 | 1.0 | 3.0 | 0.00 | 0.00 | 0.00 | 88 | 1012.9 |
| 20260504185804 | 56 | 53 | 0.0 | 2.0 | 0.00 | 0.00 | 0.00 | 87 | 1012.9 |
| 20260504184804 | 56 | 52 | 1.0 | 3.0 | 0.00 | 0.00 | 0.00 | 86 | 1012.9 |
| 20260504183804 | 57 | 77 | 2.0 | 7.0 | 0.00 | 0.00 | 0.00 | 86 | 1012.9 |
| 20260504182804 | 57 | 46 | 2.0 | 6.0 | 0.00 | 0.00 | 0.00 | 86 | 1012.9 |
| 20260504182304 | 57 | 73 | 3.0 | 6.0 | 0.00 | 0.00 | 0.00 | 86 | 1012.9 |
| 20260504181304 | 58 | 51 | 2.0 | 5.0 | 0.00 | 0.00 | 0.00 | 86 | 1012.9 |
| 20260504180803 | 58 | 39 | 1.0 | 5.0 | 0.00 | 0.00 | 0.00 | 86 | 1012.9 |
| 20260504180304 | 57 | 33 | 2.0 | 8.0 | 0.00 | 0.00 | 0.00 | 86 | 1013.0 |
| 20260504175804 | 57 | 83 | 3.0 | 8.0 | 0.00 | 0.00 | 0.00 | 86 | 1013.0 |
| 20260504175304 | 57 | 84 | 3.0 | 7.0 | 0.00 | 0.00 | 0.00 | 86 | 1013.0 |
| 20260504174811 | 57 | 62 | 3.0 | 6.0 | 0.00 | 0.00 | 0.00 | 86 | 1013.0 |
| 20260504172812 | 57 | 7 | 4.0 | 8.0 | 0.00 | 0.00 | 0.00 | 86 | 1013.1 |
| 20260504170804 | 57 | 22 | 3.0 | 8.0 | 0.00 | 0.00 | 0.00 | 86 | 1013.0 |
| 20260504150303 | 59 | 38 | 4.0 | 7.0 | 0.00 | 0.00 | 0.00 | 85 | 1013.1 |
| 20260504141304 | 57 | 347 | 2.0 | 5.0 | 0.00 | 0.00 | 0.00 | 90 | 1013.3 |
| 20260504140803 | 57 | 48 | 2.0 | 6.0 | 0.00 | 0.01 | 0.00 | 90 | 1013.3 |
| 20260504130804 | 56 | 65 | 2.0 | 6.0 | 0.00 | 0.01 | 0.00 | 93 | 1013.6 |
| 20260504130304 | 56 | 78 | 0.0 | 3.0 | 0.00 | 0.01 | 0.00 | 93 | 1013.6 |
| 20260504110304 | 55 | 33 | 2.0 | 5.0 | 0.00 | 0.01 | 0.00 | 96 | 1013.5 |